Location: Claremont
(33.9858°S, 18.4575°E)
Time: 22:28:00
(UTC+00:00)

deb Transit VC - Pass Details

Date: 27 September 2021
Orbit: 840 x 909 km, 90.5° (Epoch: 20 October)

Event Time Altitude Azimuth Distance (km) Brightness Sun altitude
Rises 17:03:49 0° 350° (N) 3,482 ? -4.5°
Reaches altitude 10° 17:06:19 10° 345° (NNW) 2,540 ? -5.0°
Maximum altitude 17:11:50 50° 270° (W) 1,115 ? -6.1°
Drops below altitude 10° 17:17:20 10° 195° (SSW) 2,526 ? -7.3°
Sets 17:19:49 0° 189° (S) 3,460 ? -7.8°
